AirNav   Air Wisconsin pilot careers
 
 1648 users online  

8AL2 Charles C Killough Field Airport
Talladega, Alabama, USA


FAA INFORMATION EFFECTIVE 20 JUNE 2019

Location

FAA Identifier: 8AL2
Lat/Long: 33-21-19.5336N / 086-15-43.6860W
33-21.325560N / 086-15.728100W
33.3554260 / -86.2621350
(estimated)
Elevation: 443 ft. / 135 m (estimated)
From city: 9 miles SW of TALLADEGA, AL
Time zone: UTC -5 (UTC -6 during Standard Time)
Zip code: 35014

Airport Operations

Airport use: Private use. Permission required prior to landing
Activation date: 03/2018
Control tower: no
ARTCC: ATLANTA CENTER
FSS: ANNISTON FLIGHT SERVICE STATION
Attendance: DAYLIGHT HOURS
Wind indicator: yes
Segmented circle: no

Airport Communications

WX AWOS-3PT at SCD (11 nm S): 119.125 (256-249-2620)
WX AWOS-3P at PLR (12 nm N): 119.625 ((205) 884-4359)
WX AWOS-3PT at ASN (17 nm NE): 118.425 (256-362-5847)

Nearby radio navigation aids

VOR radial/distance  VOR name  Freq  Var
TDGr218/17.2TALLADEGA VOR/DME108.8002E
VUZr119/37.1VULCAN VORTAC114.4002E
GADr191/38.3GADSDEN VOR/DME112.3002E

Airport Services

Runway Information

Runway 18/36

Dimensions: 1750 x 100 ft. / 533 x 30 m
Surface: turf, in good condition
RUNWAY 18  RUNWAY 36
Traffic pattern: rightleft
Obstructions: 60 ft. trees, 200 ft. from runwaynone

Airport Ownership and Management from official FAA records

Ownership: Privately-owned
Owner: JOEY PETERS
235 OLD GEORGIA CIRCLE
ALPINE, AL 35014
Phone 256 493 4103
Manager: JOEY PETERS
235 OLD GEORGIA CIRCLE
ALPINE, AL 35014
Phone 256 493 4103

Airport Operational Statistics

Aircraft based on the field: 1
Single engine airplanes: 1
    

Additional Remarks

WILL LDG RWY 18 WITH RIGHT HAND TFC, TKOF FM RWY 36. OPR DURING DALGT AND AVG OF 40 TKOFS AND LDGS MONTHLY.
FOR CD CTC ATLANTA ARTCC AT 770-210-7692.

Instrument Procedures

There are no published instrument procedures at 8AL2.

Some nearby airports with instrument procedures:

KSCD - Merkel Field Sylacauga Municipal Airport (11 nm S)
KPLR - St Clair County Airport (12 nm N)
KASN - Talladega Municipal Airport (17 nm NE)
KANB - Anniston Regional Airport (25 nm NE)
KBHM - Birmingham-Shuttlesworth International Airport (28 nm NW)
 
Loc | Ops | Rwys | IFR | FBO | Links
Com | Nav | Svcs | Stats | Notes
Aerial photo
No photo
 
Airport distance calculator
Flying to Charles C Killough Field Airport? Find the distance to fly.

From to 8AL2

Sunrise and sunset
Times for 16-Jul-2019
 Local
(UTC-5)
 Zulu
(UTC)
Morning civil twilight05:2010:20
Sunrise05:4810:48
Sunset19:5400:54
Evening civil twilight20:2201:22

Current date and time
Zulu (UTC)  16-Jul-2019 16:44:17
Local (UTC-5)  16-Jul-2019 11:44:17
 
METAR
KSCD 
11nm S 
161635Z AUTO 25008KT 10SM BKN029 BKN037 30/21 A3016 RMK AO2 T03040208
KPLR 
12nm N 
161635Z AUTO 17008KT 10SM CLR 31/25 A3016 RMK A01
KASN 
17nm NE 
161635Z AUTO 23007G14KT 10SM SCT040 31/22 A3016 RMK AO2 T03120218
TAF
KASN 
17nm NE 
161500Z 1615/1712 20008KT P6SM SCT250 TEMPO 1615/1616 BKN025 FM161700 22009KT P6SM FEW050 SCT250 FM170000 21004KT P6SM SCT250
NOTAMs
Click for the latest NOTAMs
NOTAMs are issued by the DoD/FAA and will open in a separate window not controlled by AirNav.

 

 
 

Would you like to see your business listed on this page?

 If your business provides an interesting product or service to pilots, flight crews, aircraft, or users of the Charles C Killough Field Airport, you should consider listing it here.  To start the listing process, click on the button below
 
Add a business
 

Other Pages about Charles C Killough Field Airport

Update a link
 
Copyright © AirNav, LLC. All rights reserved. Privacy Policy  Contact